Regional Weather Roundup
Issued by NWS

Home | Current Version | Previous Version | Text Only | Print | Product List | Glossary Off
Versions: 1 2 3 4 5 6 7 8 9 10 11 12 13 14 15 16 17 18 19 20 21 22 23 24 25 26 27 28 29 30 31 32 33 34 35 36 37 38 39 40 41 42 43 44 45 46 47 48 49 50

000
ASUS45 KCYS 260810
RWRWY

WYOMING REGIONAL WEATHER ROUNDUP
NATIONAL WEATHER SERVICE CHEYENNE WY
100 AM MST THU FEB 26 2015

NOTE:  "FAIR" INDICATES FEW OR NO CLOUDS BELOW 12,000 FEET
WITH NO SIGNIFICANT WEATHER AND/OR OBSTRUCTIONS TO VISIBILITY.

WYZ001-260900-
YELLOWSTONE NATIONAL PARK

CITY           SKY/WX    TMP DP  RH WIND       PRES   REMARKS
LK YELLOWSTONE   N/A      3  -2  79 CALM      30.05F
W YELLOWSTONE  NOT AVBL

$$
WYZ002>013-054>058-071-098>099-260900-
NORTHERN WYOMING

CITY           SKY/WX    TMP DP  RH WIND       PRES   REMARKS
JACKSON        FAIR      12   7  79 NW5       30.05S WCI   4
CODY           CLOUDY    10   9  92 N6        30.19S WCI   1
GREYBULL       CLOUDY    17   4  56 NW12      30.25S WCI   4
WORLAND        LGT SNOW  18   9  68 N13       30.23S WCI   5
SHERIDAN       LGT SNOW  11   6  81 NE6       30.31F WCI   1
BUFFALO        LGT SNOW   7   3  84 CALM      30.23R FOG
GILLETTE       CLOUDY     6   0  76 N10       30.27S WCI  -9
HULETT         LGT SNOW   5   0  78 CALM      30.28S
NEWCASTLE      FAIR       7   0  72 NW7       30.28R WCI  -5

$$
WYZ014>020-022>026-101>103-260900-
CENTRAL WYOMING

CITY           SKY/WX    TMP DP  RH WIND       PRES   REMARKS
BIG PINEY      CLOUDY    19  14  81 S8        30.06F WCI   9
PINEDALE       FLURRIES  16  14  93 CALM      30.08S
DUBOIS         FLURRIES  12   7  79 W6        30.02F WCI   3
LANDER         CLOUDY    16  13  88 NW8       30.11F WCI   5
RIVERTON       CLOUDY    18  13  80 E6        30.13F WCI  10
CASPER         CLOUDY    11   5  77 NE5       30.19S WCI   3
DOUGLAS        LGT SNOW  10   4  76 NW9       30.22F WCI  -3

$$
WYZ021-027>030-104>119-260900-
SOUTHERN WYOMING

CITY           SKY/WX    TMP DP  RH WIND       PRES   REMARKS
EVANSTON       FAIR      22  16  78 E6        30.02F WCI  14
FORT BRIDGER   CLOUDY    25  19  79 NW3       30.06F
ROCK SPRINGS   FAIR      14  10  84 E9        30.08F WCI   2
DIXON          CLOUDY    20  13  73 CALM      30.10S
RAWLINS        CLOUDY    14  11  87 W3        30.07F
SARATOGA       CLOUDY    12  10  92 SE5       30.07S WCI   4
LARAMIE        CLOUDY     7   4  87 W7        30.03S WCI  -5
CHEYENNE       CLOUDY    10   4  76 N10       30.09F WCI  -4
TORRINGTON     MOCLDY    12   1  61 N17       30.24S WCI  -5
PINE BLUFFS    PTSUNNY   10   5  79 N9        30.18S WCI  -2

$$



USA.gov is the U.S. government's official web portal to all federal, state and local government web resources and services.